< < Back
Terminal Aerodrome Forecast


Current Version              Previous Versions:   1  2  3  4  5  6  7  8  9  

Terminal Aerodrome Forecast

542
FTUS42 KJAX 280834 AAB
TAFJAX
TAF AMD
KJAX 280834Z 2809/2906 VRB03KT P6SM FEW040 BKN250
     FM281500 10012KT P6SM SCT040 BKN250
     FM290200 VRB03KT P6SM SCT250=

Latest METAR

745
SAUS80 KWBC 281400 RRA
MTRJAX
METAR KJAX 281356Z 09012G17KT 10SM SCT030 BKN250 27/18 A3019 RMK AO2
SLP223 T02720183


USA.gov is the U.S. government's official web portal to all federal, state and local government web resources and services.